Location: Ostrava
(49.8330°N, 18.2830°E)
Time: 00:47:44
(UTC+02:00)

ISS - Visible Passes

Search period start: 06 May 2021 00:00
Search period end: 16 May 2021 00:00
Orbit: 418 x 421 km, 51.6° (Epoch: 05 May)

Date Brightness Start Highest point End Pass type
(mag) Time Alt. Az. Time Alt. Az. Time Alt. Az.
06 May -3.9 02:48:19 63° SSW 02:48:42 73° SSE 02:52:06 10° ENE visible
06 May -3.3 04:22:16 10° W 04:25:37 61° N 04:28:59 10° E visible
07 May -2.6 02:02:24 35° E 02:02:24 35° E 02:04:38 10° ENE visible
07 May -3.4 03:35:20 14° W 03:38:08 65° N 03:41:31 10° ENE visible
08 May -1.2 01:16:27 15° E 01:16:27 15° E 01:17:07 10° E visible
08 May -3.6 02:49:24 35° W 02:50:40 73° NNW 02:54:03 10° ENE visible
08 May -3.4 04:24:17 10° WNW 04:27:40 67° N 04:31:03 10° E visible
09 May -3.7 02:03:25 77° ENE 02:03:25 77° ENE 02:06:37 10° ENE visible
09 May -3.3 03:36:50 10° WNW 03:40:11 62° N 03:43:33 10° E visible
10 May -2.1 01:17:25 28° E 01:17:25 28° E 01:19:09 10° ENE visible
10 May -3.3 02:50:21 18° W 02:52:41 61° N 02:56:04 10° E visible
10 May -3.8 04:26:15 10° WNW 04:29:39 85° SSW 04:33:02 10° ESE visible
11 May -1.0 00:31:23 12° ENE 00:31:23 12° ENE 00:31:41 10° ENE visible
11 May -3.4 02:04:19 43° WNW 02:05:12 65° N 02:08:34 10° ENE visible
11 May -3.6 03:38:48 10° WNW 03:42:11 78° NNE 03:45:35 10° E visible
12 May -3.3 01:18:14 58° NE 01:18:14 58° NE 01:21:05 10° ENE visible
12 May -3.4 02:51:20 10° WNW 02:54:42 67° N 02:58:05 10° E visible
13 May -2.0 00:32:03 25° ENE 00:32:03 25° ENE 00:33:38 10° ENE visible
13 May -3.3 02:04:58 19° WNW 02:07:13 62° N 02:10:35 10° E visible
13 May -3.8 03:40:44 10° WNW 03:44:05 65° SSW 03:47:27 10° ESE visible
13 May -1.3 23:45:40 14° ENE 23:45:40 14° ENE 23:46:10 10° ENE visible
14 May -3.3 01:18:33 36° WNW 01:19:42 61° N 01:23:04 10° E visible
14 May -3.9 02:53:16 10° WNW 02:56:40 85° SSW 03:00:03 10° ESE visible
14 May -1.8 21:17:43 10° SSE 21:19:10 12° SE 21:20:36 10° ESE visible
14 May -3.7 22:52:05 10° SW 22:55:23 54° SSE 22:58:41 10° ENE visible
15 May -3.4 00:28:51 10° W 00:32:12 65° N 00:35:34 10° ENE visible
15 May -3.7 02:05:48 10° WNW 02:09:12 78° NNE 02:12:34 10° E visible
15 May -3.1 03:42:46 10° W 03:45:50 32° SSW 03:48:54 10° SSE visible
15 May -3.3 22:04:51 10° SW 22:08:00 38° SSE 22:11:10 10° E visible
15 May -3.6 23:41:20 10° W 23:44:42 73° NNW 23:48:05 10° ENE visible
